(342072) = 2004 RZ326 = 2008 SM31

Discovered at Kitt Peak on 2008-09-20 by Spacewatch.

Orbit

Orbit type: Main Belt

Note: WebGL enabled browser required.

epoch2023-09-13.0
epoch JD2460200.5
perihelion date2020-08-15.47805
perihelion JD2459076.97805
argument of perihelion (°)151.41958
ascending node (°)249.66408
inclination (°)6.31414
eccentricity0.0294815
perihelion distance (AU)2.3889394
Tisserand w.r.t. Jupiter3.5
ΔV w.r.t. Earth (km/sec)9.8
semimajor axis (AU)2.4615084
mean anomaly (°)286.73679
mean daily motion (°/day)0.25521250
aphelion distance (AU)2.534
period (years)3.86
P-vector [x]0.75102977
P-vector [y]0.58292964
P-vector [z]0.31007631
Q-vector [x]-0.65216530
Q-vector [y]0.72827105
Q-vector [z]0.21047971
absolute magnitude16.72
phase slope0.15
uncertainty0
referenceMPO 779446
observations used311
oppositions14
arc length (days)7997
first opposition used2001
last opposition used2023
residual rms (arc-secs)0.78
perturbers coarse indicatorM-v
perturbers precise indicator003Ek
first observation date used2001-12-17.0
last observation date used2023-11-09.0
computer nameMPCLINUX
JD of orbit computation2456760.643179
perihelion JD uncertainty (days)3.9237E-04
argument of perihelion uncertainty (°)1.1442E-04
ascending node uncertainty (°)5.3383E-05
inclination uncertainty (°)4.5206E-06
eccentricity uncertainty 6.6794E-08
perihelion distance uncertainty (AU)1.5949E-07
Minimum Orbit Intersection Distances (in AU)
for orbit epoch: 2460200.5, reference: E2023-VG7
Mercury2.04234
Venus1.66911
Earth1.39873
Mars0.84114
Jupiter2.58433
Saturn6.63882
Uranus15.964
Neptune27.461

Observations

321 total observations over interval: 2001 12 17.44428 – 2023 11 09.119349
These data are available for download (format description).

Date (UT) J2000 RA J2000 Dec Magn Location Ref
2001 12 17.44428 07 55 43.84 +14 51 41.4 19.9   704 – Lincoln Laboratory ETS, New Mexico MPS 313458
2001 12 17.45956 07 55 43.16 +14 51 41.3 20.0   704 – Lincoln Laboratory ETS, New Mexico MPS 313458
2001 12 17.47485 07 55 42.58 +14 51 38.8 20.6   704 – Lincoln Laboratory ETS, New Mexico MPS 313458
2004 09 13.38686 23 41 19.20 +09 15 07.7 19.9 V 691 – Steward Observatory, Kitt Peak-Spacewatch MPS 114606
2004 09 13.40088 23 41 18.45 +09 15 02.7 19.9 V 691 – Steward Observatory, Kitt Peak-Spacewatch MPS 114606
2004 09 13.41502 23 41 17.68 +09 14 57.8 20.0 V 691 – Steward Observatory, Kitt Peak-Spacewatch MPS 114606
2004 09 18.25881 23 37 05.79 +08 45 24.7 20.9   704 – Lincoln Laboratory ETS, New Mexico MPS 114606
2004 09 18.27064 23 37 05.17 +08 45 20.5 20.1   704 – Lincoln Laboratory ETS, New Mexico MPS 114606
2004 09 18.28246 23 37 04.56 +08 45 15.0 20.6   704 – Lincoln Laboratory ETS, New Mexico MPS 114606
2004 09 18.29428 23 37 03.95 +08 45 09.2 20.2   704 – Lincoln Laboratory ETS, New Mexico MPS 114606
2005 10 06.48464 08 16 39.93 +16 40 14.5 22.3 V G96 – Mt. Lemmon Survey MPS 279681
2005 10 06.48906 08 16 40.36 +16 40 12.7 21.6 V G96 – Mt. Lemmon Survey MPS 279681
2005 10 06.49353 08 16 40.72 +16 40 11.2 21.5 V G96 – Mt. Lemmon Survey MPS 279681
2005 10 06.49799 08 16 41.05 +16 40 09.3 21.6 V G96 – Mt. Lemmon Survey MPS 279681
2006 01 30.23785 08 37 18.37 +09 08 51.3 19.2 V 703 – Catalina Sky Survey MPS 279681
2006 01 30.24542 08 37 17.97 +09 08 51.2 20.0 V 703 – Catalina Sky Survey MPS 279681
2006 01 30.25304 08 37 17.47 +09 08 52.7 20.3 V 703 – Catalina Sky Survey MPS 279681
2006 01 30.26066 08 37 17.07 +09 08 54.2 20.1 V 703 – Catalina Sky Survey MPS 279681
2008 09 20.19909 01 01 05.69 +16 14 13.0   691 – Steward Observatory, Kitt Peak-Spacewatch MPS 258108
2008 09 20.21422 01 01 05.01 +16 14 09.1   691 – Steward Observatory, Kitt Peak-Spacewatch MPS 258108
2008 09 20.22935 01 01 04.32 +16 14 05.5   691 – Steward Observatory, Kitt Peak-Spacewatch MPS 258108
2008 09 22.19446 00 59 35.79 +16 05 19.3 20.1 V 691 – Steward Observatory, Kitt Peak-Spacewatch MPS 258108
2008 09 22.21209 00 59 34.98 +16 05 14.7 20.1 V 691 – Steward Observatory, Kitt Peak-Spacewatch MPS 258108
2008 09 22.22969 00 59 34.14 +16 05 09.5 20.2 V 691 – Steward Observatory, Kitt Peak-Spacewatch MPS 258108
2008 09 25.17719 00 57 14.43 +15 50 26.2 20.1 V 691 – Steward Observatory, Kitt Peak-Spacewatch MPS 258108
2008 09 25.19480 00 57 13.55 +15 50 20.9 20.1 V 691 – Steward Observatory, Kitt Peak-Spacewatch MPS 258108
2008 09 25.21242 00 57 12.67 +15 50 15.3 20.2 V 691 – Steward Observatory, Kitt Peak-Spacewatch MPS 258108
2008 10 02.30452 00 51 11.52 +15 07 49.9 20.0   704 – Lincoln Laboratory ETS, New Mexico MPS 258108
2008 10 02.31678 00 51 10.89 +15 07 44.5 20.3   704 – Lincoln Laboratory ETS, New Mexico MPS 258108
2008 10 02.32912 00 51 10.23 +15 07 40.4 20.0   704 – Lincoln Laboratory ETS, New Mexico MPS 258108
2008 10 06.14516 00 47 49.12 +14 41 20.3 19.8 V 691 – Steward Observatory, Kitt Peak-Spacewatch MPS 259363
2008 10 06.16278 00 47 48.15 +14 41 13.0 19.9 V 691 – Steward Observatory, Kitt Peak-Spacewatch MPS 259363
2008 10 06.18037 00 47 47.20 +14 41 05.2 19.8 V 691 – Steward Observatory, Kitt Peak-Spacewatch MPS 259363
2008 10 08.15022 00 46 03.15 +14 26 44.0 19.8 V 691 – Steward Observatory, Kitt Peak-Spacewatch MPS 259363
2008 10 08.17127 00 46 02.02 +14 26 34.7 19.9 V 691 – Steward Observatory, Kitt Peak-Spacewatch MPS 259363
2008 10 08.18888 00 46 01.05 +14 26 26.9 19.8 V 691 – Steward Observatory, Kitt Peak-Spacewatch MPS 259363
2008 10 29.27935 00 29 54.81 +11 40 10.9 19.4 V G96 – Mt. Lemmon Survey MPS 261674
2008 10 29.28694 00 29 54.49 +11 40 07.4 19.9 V G96 – Mt. Lemmon Survey MPS 261674
2008 10 29.29463 00 29 54.24 +11 40 04.0 19.5 V G96 – Mt. Lemmon Survey MPS 261674
2008 10 29.30224 00 29 53.95 +11 40 00.4 19.9 V G96 – Mt. Lemmon Survey MPS 261674
2010 02 09.32696 09 45 41.47 +02 48 16.0 19.4 V 703 – Catalina Sky Survey MPS 313458
2010 02 09.33248 09 45 41.11 +02 48 16.3 18.8 V 703 – Catalina Sky Survey MPS 313458
2010 02 09.33807 09 45 40.96 +02 48 19.1 19.6 V 703 – Catalina Sky Survey MPS 313458
2010 02 09.34361 09 45 40.57 +02 48 18.1 20.1 V 703 – Catalina Sky Survey MPS 313458
2010 03 12.340399 09 19 48.517 +05 15 49.93 20.02 r F51 – Pan-STARRS 1, Haleakala MPS 337415
2010 03 12.348907 09 19 48.213 +05 15 52.63 20.25 r F51 – Pan-STARRS 1, Haleakala MPS 337415
2011 06 07.44674 17 46 32.154 -21 03 32.80 20.8 g F51 – Pan-STARRS 1, Haleakala MPS 385362
2011 06 07.46261 17 46 31.196 -21 03 29.65 20.8 g F51 – Pan-STARRS 1, Haleakala MPS 385362
2012 10 11.29667 02 14 00.14 +20 37 50.0 20.4 V 691 – Steward Observatory, Kitt Peak-Spacewatch MPS 435201
2012 10 11.31436 02 13 59.24 +20 37 44.5 20.3 V 691 – Steward Observatory, Kitt Peak-Spacewatch MPS 435201
2012 10 11.33206 02 13 58.34 +20 37 39.2 20.3 V 691 – Steward Observatory, Kitt Peak-Spacewatch MPS 435201
2012 10 15.21132 02 10 43.84 +20 16 00.0 20.2 V 691 – Steward Observatory, Kitt Peak-Spacewatch MPS 435201
2012 10 15.23596 02 10 42.51 +20 15 51.3 19.9 V 691 – Steward Observatory, Kitt Peak-Spacewatch MPS 435201
2012 10 15.25368 02 10 41.57 +20 15 44.8 19.8 V 691 – Steward Observatory, Kitt Peak-Spacewatch MPS 435201
2012 11 02.25280 01 54 20.88 +18 07 32.1 19.8 V G96 – Mt. Lemmon Survey MPS 441644
2012 11 02.26013 01 54 20.48 +18 07 29.0 20.0 V G96 – Mt. Lemmon Survey MPS 441644
2012 11 02.26702 01 54 20.12 +18 07 25.6 20.1 V G96 – Mt. Lemmon Survey MPS 441644
2012 11 02.27392 01 54 19.72 +18 07 22.2 19.7 V G96 – Mt. Lemmon Survey MPS 441644
2012 11 03.463551 01 53 17.183 +17 57 59.25 20.1 i F51 – Pan-STARRS 1, Haleakala MPS 441644
2012 11 03.476734 01 53 16.480 +17 57 52.94 19.9 i F51 – Pan-STARRS 1, Haleakala MPS 441644
2012 11 07.278003 01 50 05.102 +17 27 41.79 19.8 w F51 – Pan-STARRS 1, Haleakala MPS 441644
2012 11 07.292057 01 50 04.388 +17 27 35.20 19.8 w F51 – Pan-STARRS 1, Haleakala MPS 441644
2012 11 07.306112 01 50 03.670 +17 27 28.46 19.8 w F51 – Pan-STARRS 1, Haleakala MPS 441644
2012 11 07.320224 01 50 02.951 +17 27 21.87 19.7 w F51 – Pan-STARRS 1, Haleakala MPS 441644
2012 11 13.08090 01 45 40.19 +16 42 11.5 19.3 R J04 – ESA Optical Ground Station, Tenerife MPS 444828
2012 11 13.08499 01 45 40.01 +16 42 09.7 19.4 R J04 – ESA Optical Ground Station, Tenerife MPS 444828
2012 11 13.08905 01 45 39.83 +16 42 07.6 19.3 R J04 – ESA Optical Ground Station, Tenerife MPS 444828
2012 11 29.24170 01 37 42.213 +14 52 09.52 20.2 r F51 – Pan-STARRS 1, Haleakala MPS 445917
2012 11 29.25303 01 37 42.003 +14 52 05.52 20.1 r F51 – Pan-STARRS 1, Haleakala MPS 445917
2014 01 25.47493 11 08 02.035 -04 26 57.80 21.1 g F51 – Pan-STARRS 1, Haleakala MPS 500148
2014 01 25.49848 11 08 01.509 -04 26 59.81 20.5 r F51 – Pan-STARRS 1, Haleakala MPS 500148
2014 01 25.50999 11 08 01.246 -04 27 00.60 20.6 r F51 – Pan-STARRS 1, Haleakala MPS 500148
2014 02 22.46307 10 49 32.854 -03 42 08.19 19.5 i F51 – Pan-STARRS 1, Haleakala MPS 508435
2014 02 22.47527 10 49 32.171 -03 42 04.79 19.5 i F51 – Pan-STARRS 1, Haleakala MPS 508435
2014 02 22.48743 10 49 31.493 -03 42 01.64 19.6 i F51 – Pan-STARRS 1, Haleakala MPS 508435
2014 02 22.49959 10 49 30.824 -03 41 58.23 19.7 i F51 – Pan-STARRS 1, Haleakala MPS 508435
2014 04 04.29316 10 19 06.931 +00 19 52.25 20.5 w F51 – Pan-STARRS 1, Haleakala MPS 509690
2014 04 04.30542 10 19 06.636 +00 19 56.25 20.5 w F51 – Pan-STARRS 1, Haleakala MPS 509690
2014 04 04.33000 10 19 06.080 +00 20 04.15 20.6 w F51 – Pan-STARRS 1, Haleakala MPS 509690
2016 07 17.59235 02 40 47.158 +20 24 56.30 21.7 w F51 – Pan-STARRS 1, Haleakala MPS 721172
2016 07 17.59771 02 40 47.642 +20 24 58.50 21.6 w F51 – Pan-STARRS 1, Haleakala MPS 721172
2016 07 17.60308 02 40 48.101 +20 25 00.59 21.9 w F51 – Pan-STARRS 1, Haleakala MPS 721172
2016 10 07.44448 03 46 16.047 +24 23 12.31 20.5 w F51 – Pan-STARRS 1, Haleakala MPS 736000
2016 10 07.45750 03 46 15.840 +24 23 11.11 20.4 w F51 – Pan-STARRS 1, Haleakala MPS 736000
2016 10 07.47053 03 46 15.629 +24 23 09.86 20.4 w F51 – Pan-STARRS 1, Haleakala MPS 736000
2016 10 07.48358 03 46 15.416 +24 23 08.56 20.5 w F51 – Pan-STARRS 1, Haleakala MPS 736000
